GAOFEN 3 DEB, 42678

Orbit data source: Space-Track

GAOFEN 3 DEB, 42678 is space debris in SSO originally from a launch on Tue, 09 Aug 2016 UTC launched from the Taiyaun Space Center, China (TSC). Debris objects in space refer to the collection of defunct objects orbiting the Earth. Examples of debris include non-operational satellites, rocket bodies, and fragments generated from explosions, collisions, or faulty payload assembly.

Loading next visibility...
Identifier
42678, 2016-049C
Orbit
SSO
Country
Flag of CNCN / PRC
Related business
Manufacturer
Unknown
Mission
Spacecraft
Bus & Motor
Unknown
Mass
Unknown
Launch date (UTC)
2016-08-09 (9 years ago)
Launch vehicle
Unknown
Launch site
Taiyaun Space Center, China (TSC)
Object type
Payload
Rocket body
Debris
Shape & HBR
Unknown shape, 0.1 m
Radar Cross Section
Small (<0.1 m²)

Expand to show TLE details & history
Last TLE update: 12 hours ago

TLE from 12 hours ago
0 GAOFEN 3 DEB
1 42678U 16049C   25341.29445296  .00000463  00000-0  14016-3 0  9991
2 42678  98.3208 351.2147 0007916 209.1049 150.9703 14.46655389486172
Epoch: 2025-12-07T07:04Z
TLE epoch observation values (Epoch: 2025-12-07T07:04:00.735Z)
Latitude
-0.00005°
Longitude
168.90174°
Altitude
744.483 km
Speed
7.48 km/s
True Right ascension
23h 24m 51s
True Declination
0° 00' 00"
Sunlit
Object was in daylight at epoch
Visualization orbit readout
Latitude
Unknown
Longitude
Unknown
Altitude
Unknown
Speed
Unknown
Apparent Right ascension
Unknown
Apparent Declination
Unknown
Sunlit
N/A
Visualization observer readout
Local Sidereal Time
17:24:25
Azimuth
Unknown
Elevation
Unknown
Doppler factor
Unknown
Orbital elements
Apogee altitude
739.328 km
Perigee altitude
728.068 km
Semi-major axis
7,111.835 km
Eccentricity
0.00079
Inclination
98.3208°
RAAN
351.2147°
Arg. of periapsis
209.1049°
True anomaly
151.01428°
Mean anomaly
150.9703°
Eccentric anomaly
150.99229°
Mean motion
3.61885 °/min
Orbital period
99.48 mins
BSTAR
0.00014016
Loading maneuver chart data...
Computing Atmospheric mass density...
Loading historical data...
Loading historical data...
Loading historical data...
Loading historical data...
Loading historical data...
Loading historical data...
Loading historical data...
Other satellites on launch #49 in the year 2016 (2016-08-09 UTC)

Documentation

Showing up to 5 results
|